Tracking 28794 objects as of 19-Apr-2024
HD Live streaming from Space Station
objects crossing your sky now

CZ-6A DEB

Track CZ-6A DEB now!
10-day predictions


NORAD ID: 54598
Int'l Code: 2022-151MY
Perigee: 676.2 km
Apogee: 803.7 km
Inclination: 98.9 °
Period: 99.5 minutes
Semi major axis: 7110 km
RCS: Unknown
Launch date: November 11, 2022
Source: People's Republic of China (PRC)
Launch site: Taiyaun Space Center, China (TSC)

Note: This is SATELLITE DEBRIS
Your satellite tracking list
Your tracking list is empty




NASA's NSSDC Master Catalog

Two Line Element Set (TLE):
1 54598U 22151MY  24110.59245622  .00031375  00000-0  80408-2 0  9996
2 54598  98.9300 152.2273 0089704 154.2125 206.3578 14.47812105 75075
Source of the keplerian elements: AFSPC